Volver al catálogo

STARLINK-34029

ActivoComunicacionesVLEO
NORAD 63805·PAYLOAD·🇺🇸 United States

Lanzado May 4, 2025 desde Cape Canaveral Space Force Station

Loading…

Próximos Pases (próximas 24 horas)

TLE

ActualizadoSource: CelesTrak SupGP

Época: Sep 14, 2026, 21:13 UTC

1 63805C 25092B   26257.88451389 -.00008458  00000+0 -30631-3 0  2577
2 63805  43.0003 184.4308 0001372 262.8917 160.9864 15.27585693    16

Sigue STARLINK-34029 en tiempo real con AllMySat

Download on the App Store